[[{"header":{"parameterUnit":"m.s-1","parameterCategory":1,"la1":30.2991,"la2":30.254,"lo1":-89.0895,"lo2":-89.0444,"dy":0.0017,"dx":0.0017,"nx":28,"ny":28,"refTime":"2024-05-31T09:00:00:Z","depth":0,"parameterNumber":2,"parameterNumberName":"U-component_of_WINDS"},"data":[0,0,0,0,0,0,0,0,0,0,0,0,0,0,0,0,0,0,0,0,0,0,0,0,0,0,0,0,0,0,0,0,0,0,0,0,0,0,0,0,0,0,0,0,0,0,0,0,0,0,0,0,0,0,0,0,0,0,-3.5339,-3.534,0,-3.5388,-3.5389,-3.5389,-3.5364,-3.5363,-3.5362,-3.5361,-3.5409,-3.5411,-3.5414,0,0,0,0,0,0,0,0,0,0,0,0,0,-3.5223,-3.5225,-3.5339,-3.534,-3.5341,-3.5388,-3.5389,-3.5389,-3.5365,-3.5363,-3.5362,-3.536,-3.5408,-3.5411,-3.5414,0,0,0,0,0,0,0,0,0,0,0,0,0,-3.5273,-3.5226,-3.5339,-3.5334,-3.5334,-3.5388,-3.5389,-3.539,-3.5365,-3.5363,-3.5361,-3.5359,-3.5407,-3.5411,-3.5414,-3.5476,0,0,-3.5426,-3.5427,0,0,0,0,0,0,0,0,-3.527,-3.5277,-3.5334,-3.5334,-3.5335,-3.5368,-3.5365,-3.5418,-3.5365,-3.5353,-3.5361,-3.5358,-3.5397,-3.5401,-3.5414,-3.5478,-3.548,-3.5426,-3.5428,-3.543,-3.5431,0,0,0,0,0,0,0,-3.5267,-3.5275,-3.5358,-3.5335,-3.5335,-3.5329,-3.5334,-3.5375,-3.5385,-3.5354,-3.5352,-3.5359,-3.5396,-3.5411,-3.5415,-3.5481,-3.5426,-3.5429,-3.5431,-3.5433,-3.5595,-3.5597,0,0,0,0,0,0,-3.5264,-3.5272,-3.5357,-3.536,-3.5297,-3.5332,-3.5338,-3.5359,-3.5385,-3.5387,-3.536,-3.5357,-3.5406,-3.5411,-3.5417,-3.5489,-3.543,-3.5433,-3.5435,-3.5593,-3.5596,-3.5598,0,0,0,0,0,0,-3.5261,-3.5271,-3.5355,-3.5316,-3.5326,-3.5336,-3.5361,-3.5361,-3.5376,-3.5389,-3.5391,-3.5373,-3.5404,-3.5412,-3.5461,-3.549,-3.5435,-3.5438,-3.5591,-3.5594,-3.5597,-3.5634,0,0,0,0,0,0,-3.5258,-3.5271,-3.5294,-3.5316,-3.5328,-3.5399,-3.5363,-3.5364,-3.5382,-3.5379,-3.5402,-3.5404,-3.5403,-3.5456,-3.5465,-3.5494,-3.5441,-3.5588,-3.5592,-3.5596,-3.563,-3.5638,-3.5644,0,0,0,0,0,-3.5254,-3.5303,-3.5296,-3.5306,-3.5358,-3.54,-3.5407,-3.5406,-3.5385,-3.5408,-3.5417,-3.5403,-3.5486,-3.5461,-3.5471,-3.5502,-3.5586,-3.5591,-3.5595,-3.5627,-3.5636,-3.5644,0,0,0,0,0,0,-3.5283,-3.5306,-3.5298,-3.5356,-3.5376,-3.5396,-3.5426,-3.5416,-3.5443,-3.5439,-3.5436,-3.5442,-3.5492,-3.5502,-3.5474,-3.5562,-3.5533,-3.554,-3.5553,-3.5562,-3.5569,-3.5565,-3.5444,0,0,0,0,0,-3.5297,-3.533,-3.5348,-3.5397,-3.5408,-3.5415,-3.5434,-3.5431,-3.5452,-3.5461,-3.5473,-3.5493,-3.5524,-3.5544,-3.5573,-3.5632,-3.5636,-3.5659,-3.5666,-3.5672,-3.5677,-3.5707,-3.5717,-3.5613,-3.5613,-3.5613,0,0,-3.5324,-3.5341,-3.5362,-3.5403,-3.5419,-3.5452,-3.5422,-3.546,-3.5484,-3.5466,-3.5513,-3.5523,-3.5546,-3.5599,-3.5624,-3.5609,-3.5707,-3.5678,-3.5682,-3.5684,-3.5713,-3.5723,-3.5731,-3.5616,-3.5616,-3.5615,0,0,-3.5391,-3.5408,-3.545,-3.5466,-3.5491,-3.5495,-3.5506,-3.5527,-3.5533,-3.558,-3.5567,-3.5596,-3.565,-3.5666,-3.5681,-3.5755,-3.5742,-3.5764,-3.5801,-3.5831,-3.5839,-3.5846,-3.587,-3.5879,-3.577,-3.577,-3.577,0,-3.5422,-3.5472,-3.5472,-3.551,-3.5528,-3.5515,-3.5556,-3.5572,-3.5605,-3.5617,-3.5601,-3.5667,-3.5682,-3.5738,-3.5756,-3.577,-3.578,-3.576,-3.5838,-3.5845,-3.5852,-3.5875,-3.5884,-3.5773,-3.5772,-3.5772,-3.5772,0,-3.5508,-3.5543,-3.5574,-3.5606,-3.5628,-3.5668,-3.5673,-3.5695,-3.5691,-3.5697,-3.5745,-3.5762,-3.5793,-3.5807,-3.5804,-3.5864,-3.5854,-3.5838,-3.5808,-3.5864,-3.5885,-3.5894,-3.5776,-3.5775,-3.5774,-3.5774,0,0,-3.5593,-3.5625,-3.5636,-3.565,-3.5676,-3.5703,-3.5742,-3.5773,-3.5791,-3.5815,-3.5846,-3.5892,-3.5877,-3.5895,-3.5893,-3.592,-3.5974,-3.59,-3.5901,-3.5911,-3.6039,-3.6048,-3.6058,-3.5967,-3.5969,-3.597,-3.6036,0,-3.566,-3.5728,-3.5729,-3.5791,-3.5823,-3.5811,-3.5844,-3.5864,-3.5871,-3.5898,-3.5906,-3.5938,-3.5918,-3.5928,-3.5954,-3.5962,-3.5999,-3.5958,-3.5995,-3.5996,-3.5986,-3.607,-3.608,-3.6141,-3.6044,-3.6046,-3.6047,0,-3.5746,-3.5772,-3.5838,-3.5858,-3.5872,-3.5902,-3.593,-3.5957,-3.5979,-3.5982,-3.6002,-3.5996,-3.6035,-3.6006,-3.6059,-3.603,-3.6046,-3.6053,-3.6055,-3.6056,-3.6023,-3.6071,-3.6161,-3.6169,-3.6061,-3.6059,-3.6059,0,-3.5799,-3.5851,-3.5896,-3.5908,-3.5934,-3.5956,-3.5967,-3.5987,-3.6006,-3.6031,-3.6042,-3.6072,-3.6087,-3.611,-3.6112,-3.6091,-3.6164,-3.6136,-3.6167,-3.6166,-3.618,-3.6179,-3.6271,-3.6195,-3.6195,-3.6194,-3.6194,0,-3.5872,-3.5912,-3.5919,-3.5947,-3.5991,-3.5992,-3.6035,-3.6045,-3.6063,-3.6092,-3.6084,-3.6111,-3.6114,-3.6141,-3.6144,-3.6186,-3.6193,-3.6196,-3.6196,-3.6195,-3.6195,-3.6203,-3.6198,-3.6197,-3.6196,-3.6196,-3.6195,0,-3.5937,-3.5944,-3.5992,-3.6013,-3.6019,-3.6051,-3.6068,-3.6094,-3.6101,-3.6137,-3.6146,-3.6156,-3.6188,-3.6194,-3.6232,-3.6233,-3.6283,-3.6279,-3.6275,-3.6274,-3.6303,-3.6299,-3.6402,-3.6415,-3.6333,-3.6333,-3.6334,0,-3.5982,-3.6012,-3.6036,-3.6055,-3.6068,-3.6098,-3.6117,-3.612,-3.6139,-3.6166,-3.6189,-3.622,-3.6245,-3.6297,-3.6307,-3.6336,-3.6332,-3.6366,-3.6336,-3.6334,-3.6329,-3.6326,-3.6329,-3.6371,-3.6372,-3.6372,-3.6373,0,-3.606,-3.6062,-3.6089,-3.6118,-3.6141,-3.6164,-3.6185,-3.6201,-3.6206,-3.6229,-3.6262,-3.6281,-3.632,-3.6351,-3.6379,-3.6391,-3.6382,-3.6383,-3.6391,-3.6389,-3.6385,-3.6385,-3.6288,-3.638,-3.6379,-3.6379,-3.6378,-3.6378,-3.6114,-3.614,-3.6161,-3.6192,-3.6208,-3.6228,-3.6253,-3.6263,-3.6291,-3.6322,-3.6323,-3.6358,-3.6378,-3.6416,-3.6429,-3.6457,-3.6446,-3.6458,-3.6461,-3.6463,-3.6465,-3.6383,-3.6462,-3.6462,-3.6462,-3.6462,-3.6462,0,-3.619,-3.6203,-3.6231,-3.6261,-3.6285,-3.6277,-3.63,-3.6321,-3.6352,-3.6372,-3.6397,-3.6434,-3.6464,-3.6477,-3.6506,-3.6525,-3.6522,-3.6533,-3.653,-3.6532,-3.6474,-3.6463,-3.6535,-3.6535,-3.6535,-3.6535,-3.6535,-3.6535,-3.6232,-3.6274,-3.6279,-3.6329,-3.6342,-3.6376,-3.639,-3.6408,-3.6424,-3.6466,-3.6491,-3.6499,-3.6516,-3.6547,-3.6573,-3.6576,-3.6586,-3.6598,-3.6599,-3.6544,-3.6537,-3.6529,-3.6519,-3.6601,-3.6601,-3.6655,-3.6655,-3.6656]},{"header":{"parameterUnit":"m.s-1","parameterCategory":1,"la1":30.2991,"la2":30.254,"lo1":-89.0895,"lo2":-89.0444,"dy":0.0017,"dx":0.0017,"nx":28,"ny":28,"refTime":"2024-05-31T09:00:00:Z","depth":0,"parameterNumber":3,"parameterNumberName":"V-component_of_WINDS"},"data":[0,0,0,0,0,0,0,0,0,0,0,0,0,0,0,0,0,0,0,0,0,0,0,0,0,0,0,0,0,0,0,0,0,0,0,0,0,0,0,0,0,0,0,0,0,0,0,0,0,0,0,0,0,0,0,0,0,0,2.4368,2.4367,0,2.4296,2.4296,2.4295,2.4162,2.4159,2.4156,2.4154,2.4084,2.4085,2.4085,0,0,0,0,0,0,0,0,0,0,0,0,0,2.4392,2.4393,2.4368,2.4367,2.4366,2.4297,2.4296,2.4295,2.4162,2.4159,2.4156,2.4153,2.4084,2.4085,2.4085,0,0,0,0,0,0,0,0,0,0,0,0,0,2.4358,2.4393,2.4368,2.4291,2.4284,2.4297,2.4296,2.4294,2.4163,2.4159,2.4155,2.4151,2.4084,2.4084,2.4085,2.4168,0,0,2.4088,2.4088,0,0,0,0,0,0,0,0,2.436,2.4357,2.4304,2.4297,2.4288,2.4234,2.4278,2.4252,2.4164,2.4209,2.4154,2.4149,2.4137,2.4133,2.4129,2.4165,2.4162,2.4088,2.4088,2.4089,2.4089,0,0,0,0,0,0,0,2.4362,2.4359,2.434,2.4303,2.4294,2.4262,2.4253,2.4273,2.4196,2.4205,2.4195,2.4188,2.4132,2.4128,2.4126,2.4161,2.4088,2.4089,2.4089,2.4089,2.426,2.4264,0,0,0,0,0,0,2.4376,2.4362,2.4342,2.4337,2.4315,2.4265,2.4254,2.4255,2.4195,2.4182,2.4191,2.4182,2.4129,2.4125,2.4123,2.4214,2.4089,2.4089,2.409,2.4256,2.4261,2.4265,0,0,0,0,0,0,2.4377,2.4375,2.4345,2.4347,2.4341,2.4268,2.4271,2.4256,2.4251,2.4185,2.4171,2.4201,2.4125,2.4122,2.4157,2.421,2.409,2.4091,2.4251,2.4258,2.4263,2.4399,0,0,0,0,0,0,2.4378,2.4376,2.4406,2.4349,2.4341,2.438,2.4274,2.4257,2.4253,2.424,2.419,2.4178,2.4122,2.4157,2.4158,2.4209,2.4091,2.4246,2.4254,2.4261,2.439,2.4409,2.4426,0,0,0,0,0,2.4379,2.4448,2.4408,2.4406,2.4377,2.4383,2.4379,2.4312,2.4258,2.4287,2.4245,2.418,2.4205,2.4162,2.4162,2.4214,2.4243,2.4252,2.4261,2.4381,2.4405,2.4425,0,0,0,0,0,0,2.4514,2.4439,2.4394,2.4446,2.4422,2.436,2.4395,2.4339,2.433,2.4319,2.4237,2.4227,2.4273,2.4247,2.4201,2.4291,2.4213,2.4223,2.4305,2.4327,2.4345,2.4349,2.4092,0,0,0,0,0,2.455,2.456,2.4494,2.4547,2.4537,2.4469,2.4469,2.442,2.4392,2.4381,2.4341,2.4317,2.4319,2.4322,2.4321,2.4386,2.4373,2.4422,2.4441,2.4456,2.4464,2.4496,2.4517,2.4295,2.4295,2.4295,0,0,2.4624,2.4584,2.4595,2.4573,2.4548,2.4561,2.4461,2.4479,2.4488,2.4384,2.4414,2.4384,2.4352,2.4403,2.4423,2.4383,2.4523,2.4467,2.448,2.448,2.4508,2.4529,2.4548,2.4301,2.43,2.4299,0,0,2.4764,2.4736,2.4775,2.4753,2.4717,2.4671,2.4681,2.4629,2.4604,2.4634,2.4555,2.4566,2.4572,2.4551,2.4542,2.4677,2.4617,2.4679,2.4773,2.4805,2.4823,2.4838,2.4884,2.4902,2.4689,2.4689,2.4689,0,2.4861,2.4876,2.4804,2.4826,2.4819,2.4725,2.4764,2.4747,2.4713,2.471,2.4665,2.467,2.4642,2.4686,2.4719,2.4715,2.4724,2.4683,2.4826,2.484,2.4853,2.4897,2.4915,2.4697,2.4696,2.4695,2.4694,0,2.4996,2.5008,2.5045,2.5013,2.501,2.5042,2.4975,2.498,2.4932,2.4892,2.4923,2.4886,2.4875,2.4883,2.4836,2.4921,2.4896,2.4841,2.4761,2.4883,2.4923,2.4939,2.4708,2.4705,2.4703,2.4701,0,0,2.5217,2.5145,2.516,2.5144,2.5098,2.5106,2.5135,2.5123,2.5129,2.511,2.513,2.5138,2.5086,2.5076,2.5026,2.5055,2.5162,2.4995,2.4993,2.5026,2.5252,2.5293,2.5313,2.5123,2.5126,2.5129,2.5254,0,2.5346,2.5387,2.5324,2.5381,2.5391,2.5303,2.5327,2.5302,2.5266,2.527,2.5231,2.5236,2.5168,2.5161,2.5185,2.5144,2.5206,2.5135,2.5142,2.5143,2.515,2.5334,2.5377,2.5497,2.5269,2.5272,2.5274,0,2.5501,2.5488,2.5546,2.5496,2.5498,2.5521,2.5505,2.551,2.548,2.5452,2.5441,2.5383,2.5407,2.5332,2.5365,2.5318,2.5317,2.5298,2.5301,2.5297,2.5214,2.5334,2.5534,2.5552,2.5298,2.5296,2.5294,0,2.5654,2.5651,2.5685,2.5675,2.5618,2.5636,2.5614,2.558,2.5577,2.5564,2.5562,2.5553,2.5547,2.5542,2.5483,2.5434,2.5522,2.5443,2.5499,2.5501,2.552,2.5519,2.5721,2.5524,2.5523,2.5523,2.5523,0,2.5803,2.5842,2.5753,2.5774,2.5814,2.5742,2.5784,2.5753,2.5724,2.5738,2.5662,2.5677,2.5599,2.5605,2.5559,2.5593,2.5592,2.5569,2.5556,2.5575,2.5577,2.5572,2.5561,2.5528,2.5527,2.5526,2.5525,0,2.598,2.5922,2.5953,2.5897,2.5884,2.5917,2.5869,2.5886,2.5846,2.5864,2.5864,2.5801,2.5805,2.5746,2.5738,2.5707,2.5761,2.5734,2.577,2.5761,2.582,2.5815,2.6024,2.6047,2.5837,2.5839,2.5841,0,2.6078,2.6105,2.6052,2.6055,2.6036,2.6043,2.6039,2.597,2.597,2.5938,2.596,2.5957,2.5951,2.5961,2.5915,2.5909,2.588,2.5954,2.5879,2.5896,2.5879,2.5877,2.5879,2.5969,2.5972,2.5974,2.5976,0,2.6257,2.6227,2.6224,2.6213,2.6211,2.6198,2.6181,2.6188,2.6112,2.6116,2.6119,2.6114,2.6106,2.6104,2.609,2.6067,2.6009,2.6,2.6012,2.6031,2.605,2.6039,2.5811,2.5995,2.5993,2.5992,2.5991,2.599,2.6395,2.6415,2.6381,2.6381,2.6361,2.6347,2.636,2.6321,2.6322,2.6309,2.6269,2.6278,2.6248,2.6222,2.6205,2.6212,2.6175,2.6194,2.6198,2.6203,2.6214,2.6051,2.6209,2.6208,2.6208,2.6207,2.6207,0,2.6569,2.6543,2.6544,2.6521,2.6522,2.6468,2.6446,2.645,2.6459,2.6436,2.6431,2.6434,2.6432,2.6387,2.6379,2.6394,2.6367,2.6394,2.6391,2.6387,2.6247,2.6236,2.6416,2.6416,2.6416,2.6416,2.6415,2.6415,2.6659,2.6689,2.6656,2.6677,2.665,2.6658,2.665,2.6637,2.6618,2.6624,2.6622,2.6592,2.656,2.655,2.6546,2.6533,2.6533,2.6569,2.6547,2.6417,2.6397,2.6377,2.6366,2.657,2.657,2.6685,2.6686,2.6687]}]]